Location: Malvern Link
(52.1333°N, 2.3000°W)
Time: 10:59:26
(UTC+00:00)

MOZHAYETS 4 - Pass Details

Date: 29 June 2022
Orbit: 660 x 679 km, 98.2° (Epoch: 10 August)

Event Time Altitude Azimuth Distance (km) Brightness Sun altitude
Exits shadow 01:32:11 - 141° (SE) 3,034 10.8 -12.6°
Rises 01:32:12 0° 141° (SE) 3,025 10.8 -12.6°
Reaches altitude 10° 01:34:32 10° 134° (SE) 2,113 10.0 -12.5°
Maximum altitude 01:38:50 40° 66° (ENE) 999 9.0 -12.3°
Drops below altitude 10° 01:43:08 10° 358° (N) 2,117 11.4 -12.1°
Sets 01:45:28 0° 351° (N) 3,032 12.2 -11.9°
